Weather in Kangerlussuaq

Greenland     67°00′40″N   50°42′48″W
temp.,
°C
wind,
m/s
gust,
m/s
humid.,
%
clouds,
%
prec.,
mm/h
press.,
hPa
HPBL,
m
27 september, mon
mon2701:00−11e33550 0.0 102456
04:00−12e33540 0.0 102558
07:00−12e33550 0.0 102539
10:00−10e22450 0.0 1025127
13:00−7e22360 0.0 1023248
16:00−5e22340 0.0 1022266
19:00−7ene22480 0.0 102228
22:00−9e33550 0.0 102347
28 september, tue
tue2801:00−11e33480 0.0 102257
04:00−11e33450 0.0 102150
07:00−12e33440 0.0 102136
10:00−10e22370 0.0 1019110
13:00−6e22290 0.0 1017217
16:00−4ene11290 0.0 1015214
19:00−7ene22454 0.0 101512
22:00−9e225539 0.0 101637
29 september, wed
wed2901:00−10e335218 0.0 101651
04:00−10e334766 0.0 101652
07:00−10e2245100 0.0 101736
10:00−8e223910 0.0 101798
13:00−5e223149 0.0 1017203
16:00−3ene11303 0.0 1017197
19:00−5e22445 0.0 101912
22:00−6e2253100 0.0 102122
30 september, thu
thu3001:00−6e2256100 0.0 102423
04:00−6e2256100 0.0 102529
07:00−7e22585 0.0 102713
10:00−6e225143 0.0 102871
13:00−3e11425 0.0 1028217
16:00−2ene2144100 0.0 1028235
19:00−3ene115082 0.0 102938
22:00−6ene22595 0.0 103040
1 october, fri
fri101:00−8e335612 0.0 103167
04:00−9e335483 0.0 103175
07:00−9e235184 0.0 103175
10:00−7e224798 0.0 1030104
13:00−4e2239100 0.0 1029194
16:00−3ene22385 0.0 1028194
19:00−5ene225118 0.0 102818
22:00−6e32605 0.0 102929